Triathlon du Gardon - 03/07/2016

Distance M par équipe

63 participants classés


Retour au Sommaire - Signaler une erreur - Faire défiler





1 2 3 4 /fin /tout

page suivante ->

Pl Do. Nom Club TEMPS EQUIPE P1 Tps1 Vit1 P2 Tps2 Vit2 P3 Tps3 Vit3
1 1023 FIOL OLIVIER MJC PLAN DE CUQUES TRIATHLON 2:36:17.25 MIT 3 0:22:59.1 3,9 1 1:28:26.9 27,1 16 0:43:43.7 13,7
2 1021 CARTON FABIEN MADE IN TRI 2:36:17.70 MIT 2 0:22:52.9 3,9 3 1:28:29.2 27,1 17 0:43:45.5 13,7
3 1022 COTTRET GREG MADE IN TRI 2:36:17.83 MIT 1 0:22:50.9 3,9 2 1:28:27.0 27,1 15 0:43:42.3 13,7
4 1105 PIMENTA SIMON ISSY TRIATHLON 2:45:12.81 ALLEZ QU IL VA FAIRE BEAU !! 16 0:24:26.1 3,7 11 1:34:08.9 25,5 11 0:43:37.8 13,8
5 1103 DANNECKER ERIC ECG PIGNAN 2:45:12.89 ALLEZ QU IL VA FAIRE BEAU !! 14 0:24:25.6 3,7 9 1:33:56.9 25,5 13 0:43:38.6 13,7
6 1102 BESSET CHRISTOPHE ECG PIGNAN 2:45:12.94 ALLEZ QU IL VA FAIRE BEAU !! 17 0:24:35.4 3,7 6 1:33:36.5 25,6 10 0:43:37.6 13,8
7 1104 PEREIRA THIERRY TRIRUN FRONTIGNAN 2:45:13.04 ALLEZ QU IL VA FAIRE BEAU !! 15 0:24:26.0 3,7 8 1:33:55.4 25,6 14 0:43:38.9 13,7
8 1101 AUCLAIR FLORENCE TRIRUN FRONTIGNAN 2:45:13.10 ALLEZ QU IL VA FAIRE BEAU !! 13 0:24:24.8 3,7 10 1:34:06.8 25,5 12 0:43:38.3 13,7
9 1032 VERDU REGIS VELO CLUB SALINDRES 2:46:16.72 Salindres triathlon 1 23 0:26:05.4 3,4 4 1:33:30.5 25,7 9 0:43:22.3 13,8
10 1033 VIVES JEAN MICHEL VELO CLUB SALINDRES 2:46:16.77 Salindres triathlon 1 22 0:25:53.5 3,5 7 1:33:55.2 25,6 21 0:44:16.5 13,6
11 1031 RUIZ FLORENT VELO CLUB SALINDRES 2:46:17.48 Salindres triathlon 1 24 0:26:07.7 3,4 5 1:33:34.5 25,6 8 0:43:21.0 13,8
12 1071 HERBAU PIERRE-EMMANUEL crocos d'airain 2:46:55.74 Les Starks 12 0:24:01.2 3,7 16 1:35:52.3 25,0 5 0:43:11.1 13,9
13 1074 VINCENT ARNAUD crocs d'airain 2:46:55.79 Les Starks 9 0:23:59.6 3,8 19 1:35:55.7 25,0 6 0:43:11.3 13,9
14 1073 POIGANT MIKAEL   2:46:55.91 Les Starks 10 0:24:00.4 3,7 18 1:35:53.7 25,0 7 0:43:12.0 13,9
15 1072 MARTINEZ OLIVIER crocs d'airain 2:46:56.22 Les Starks 11 0:24:01.0 3,7 17 1:35:53.4 25,0 4 0:43:10.8 13,9
16 1163 CAICEDO CARLOS   2:49:34.84 BOULE DE FEU 29 0:26:46.2 3,4 30 1:38:14.4 24,4 3 0:41:13.5 14,6
17 1161 DEBIAUNE FRANCK   2:49:35.06 BOULE DE FEU 25 0:26:31.5 3,4 28 1:37:58.9 24,5 2 0:41:13.1 14,6
18 1162 YZSBSCH YEVGUENIY   2:49:35.21 BOULE DE FEU 26 0:26:32.3 3,4 29 1:38:10.9 24,4 1 0:41:12.7 14,6
19 1052 DE MARCO SANDRINE croco d'airain 2:49:43.70 les chats maigres 8 0:23:24.9 3,8 27 1:37:41.9 24,6 33 0:47:11.7 12,7
20 150 FAIVRE NICOLAS croco d'airain 2:49:43.74 les chats maigres 4 0:23:12.9 3,9 24 1:37:36.9 24,6 30 0:47:09.4 12,7

Aucun commentaires pour le moment, donnez votre avis, vos impressions avant, pendant! et après la course

Déjà membre? Identifiez-vous pour commenter l'épreuve ou créer un compte